Location: Casilda
(33.0440°S, 61.1680°W)
Time: 19:44:24
(UTC-03:00)

ISS - Pass Details

Date: 11 April 2026
Orbit: 416 x 425 km, 51.6° (Epoch: 18 April)

Event Time Altitude Azimuth Distance (km) Brightness Sun altitude
Rises 20:29:19 0° 286° (WNW) 2,374 1.3 -22.2°
Reaches altitude 10° 20:31:41 10° 271° (W) 1,513 0.2 -22.7°
Maximum altitude 20:34:29 23° 216° (SW) 946 -1.6 -23.3°
Enters shadow 20:35:08 22° 197° (SSW) 986 -1.7 -23.4°
